SL-12 R/B(2), 20110

Orbit data source: Space-Track

SL-12 R/B(2), 20110 is space debris in GEO originally from a launch on Wed, 05 Jul 1989 UTC launched from the Tyuratam Missile And Space Complex (TTMTR). Debris objects in space refer to the collection of defunct objects orbiting the Earth. Examples of debris include non-operational satellites, rocket bodies, and fragments generated from explosions, collisions, or faulty payload assembly.

Loading next visibility...
Identifier
20110, 1989-052D
Orbit
GEO
Country
Flag of CISCIS
Related business
Manufacturer
NPO Energiya
Mission
Spacecraft
Bus & Motor
BLOK DM, Unknown motor
Mass
2,440 kg wet, 2,440 kg dry
Launch date (UTC)
1989-07-05 (36 years ago)
Launch vehicle
Unknown
Launch site
Tyuratam Missile And Space Complex (TTMTR)
Object type
Payload
Rocket body
Debris
Shape & HBR
Cyl, 3.1 m
Radar Cross Section
23.597 m², Large (>1 m²)

Expand to show TLE details & history
Last TLE update: 1 day ago

TLE from 1 day ago
0 SL-12 R/B(2)
1 20110U 89052D   25348.17072948 -.00000065  00000-0  00000-0 0  9990
2 20110  10.8839 329.8060 0034477 272.2116 102.4130  1.03059283137080
Epoch: 2025-12-14T04:05Z
TLE epoch observation values (Epoch: 2025-12-14T04:05:51.027Z)
Latitude
2.80967°
Longitude
-160.01589°
Altitude
35,052.999 km
Speed
3.101 km/s
True Right ascension
22h 58m 08s
True Declination
2° 48' 24"
Sunlit
Object was in daylight at epoch
Visualization orbit readout
Latitude
Unknown
Longitude
Unknown
Altitude
Unknown
Speed
Unknown
Apparent Right ascension
Unknown
Apparent Declination
Unknown
Sunlit
N/A
Visualization observer readout
Local Sidereal Time
13:21:24
Azimuth
Unknown
Elevation
Unknown
Doppler factor
Unknown
Orbital elements
Apogee altitude
35,166.599 km
Perigee altitude
34,881.115 km
Semi-major axis
41,401.994 km
Eccentricity
0.00345
Inclination
10.8839°
RAAN
329.806°
Arg. of periapsis
272.2116°
True anomaly
102.79848°
Mean anomaly
102.413°
Eccentric anomaly
102.60578°
Mean motion
0.25764 °/min
Orbital period
1,397.31 mins
BSTAR
0
Loading maneuver chart data...
Computing Atmospheric mass density...
Loading historical data...
Loading historical data...
Loading historical data...
Loading historical data...
Loading historical data...
Loading historical data...
Loading historical data...

Documentation

Showing up to 5 results
|